Regional Weather Roundup
Issued by NWS Nashville, TN

Home | Current Version | Previous Version | Text Only | Print | Product List | Glossary On
Versions: 1 2 3 4 5 6 7 8 9 10 11 12 13 14 15 16 17 18 19 20 21 22 23 24 25 26 27 28 29 30 31 32 33 34 35 36 37 38 39 40 41 42 43 44 45 46 47 48 49 50
000
ASUS44 KOHX 300110
RWROHX
MIDDLE TENNESSEE HOURLY WEATHER ROUNDUP
NATIONAL WEATHER SERVICE NASHVILLE TN
800 PM CDT SAT APR 29 2017

NOTE: "FAIR" INDICATES FEW OR NO CLOUDS BELOW 12,000 FEET WITH
NO SIGNIFICANT WEATHER AND/OR OBSTRUCTIONS TO VISIBILITY.

* THESE REPORTS ARE NOT UNDER NWS QUALITY CONTROL AND MAY NOT
  REPORT WEATHER SUCH AS PRECIPITATION AND FOG.


TNZ005>011-023>034-057-059-062>066-078-080-300200
...NORTHERN MIDDLE TENNESSEE...

CITY           SKY/WX    TMP DP  RH WIND       PRES   REMARKS
CLARKSVILLE    CLEAR     79  64  60 S8        29.91R
CROSSVILLE     CLOUDY    72  62  71 VRB7      30.09R
GALLATIN       CLEAR     82  66  57 VRB5      29.97R
DICKSON        CLEAR     78  65  64 S7        29.93S
LEBANON        CLEAR     79  66  64 S3        29.94
NASHVILLE      PTCLDY    80  65  59 S12       29.95R
PORTLAND       CLEAR     81  64  57 S9G15     29.94R
SMYRNA         CLEAR     79  67  66 S6        29.96R
SPARTA         MOCLDY    70  63  78 SE7       30.01R
SPRINGFIELD    CLEAR     81  63  54 S15       29.92R
WEST NASHVILLE CLEAR     81  63  54 S9        29.93R
$$
TNZ056-058-060-061-075>077-079-093>097-300200
...SOUTHERN MIDDLE TENNESSEE...

CITY           SKY/WX    TMP DP  RH WIND       PRES   REMARKS
COLUMBIA       CLEAR     79  70  73 S9        29.94R
FAYETTEVILLE   PTCLDY    79  63  57 S10       29.99R
MCMINNVILLE    MOCLDY    72  64  78 VRB6      30.02R
SHELBYVILLE    CLEAR     79  64  61 S6        29.99R
TULLAHOMA      MOCLDY    79  63  57 S7        30.02R
WINCHESTER     CLEAR     77  66  69 SE7       30.02R
$$


...KEY TO REMARKS...
VSB - VISIBILITY IN MILES
WCI - WIND CHILL INDEX
HX  - HEAT INDEX




USA.gov is the U.S. government's official web portal to all federal, state and local government web resources and services.